User: anonymous   Login
Location: Unspecified
(0.0000°N, 0.0000°E)
Time: 21:03:43
(UTC+00:00)
Language:

Magion-2 - Orbit

View from above orbital plane
View from above orbital plane
View from above satellite
View from above satellite

Ground track
Ground track

The orbit data is extracted from the following two-line orbital elements,

1 20281U 89080B   18015.94307315 +.00000061 +00000-0 +17217-4 0  9994
2 20281 082.6022 214.6373 1190249 254.7367 091.9345 12.58795152294934
Epoch (UTC): 15 January 2018 22:38:01
Eccentricity: 0.1190249
inclination: 82.6022°
perigee height: 499 km
apogee height: 2357 km
right ascension of ascending node: 214.6373°
argument of perigee: 254.7367°
revolutions per day: 12.58795152
mean anomaly at epoch: 91.9345°
orbit number at epoch: 29493

The dashed part of the orbit path shows where the satellite is in the earth's shadow,  

DLR